Waarnemingen

Advertentie
Mijn weer
Gemini, Nederland (6214): temperatuur & dauwpunt: 19.09.2017 06:00:00 - 25.09.2017 06:00:00 (CEST)Gemini, Nederland (6214): windsnelheid & windstoten: 19.09.2017 06:00:00 - 25.09.2017 06:00:00 (CEST)Gemini, Nederland (6214): windrichting: 19.09.2017 06:00:00 - 25.09.2017 06:00:00 (CEST)Gemini, Nederland (6214): luchtdruk: 19.09.2017 06:00:00 - 25.09.2017 06:00:00 (CEST)Gemini, Nederland (6214): zicht: 19.09.2017 06:00:00 - 25.09.2017 06:00:00 (CEST)
Datum & Tijd tt [°C] td [°C] ff [km/u] ff [kn] fx [km/u] fx [kn] dd ppp [hPa] vv [km]
25.09.2017 06:00:00 15,9 13,2 18 10 25 14 ZO 1023,6 10
25.09.2017 05:00:00 16,1 13,2 26 14 29 16 OZO 1023,5 10
25.09.2017 04:00:00 16,3 14,1 18 10 25 14 OZO 1023,8 10
25.09.2017 03:00:00 16,4 14,0 15 8 25 14 ZO 1024,0 10
25.09.2017 02:00:00 16,3 13,8 28 15 29 16 OZO 1024,2 10
25.09.2017 01:00:00 16,4 13,9 28 15 29 16 OZO 1024,3 10
25.09.2017 00:00:00 16,5 14,0 22 12 25 14 OZO 1024,6 10
24.09.2017 23:00:00 16,3 14,0 16 9 25 14 OZO 1024,6 10
24.09.2017 22:00:00 16,2 13,9 18 10 25 14 OZO 1024,6 10
24.09.2017 21:00:00 16,0 13,2 24 13 25 14 OZO 1024,6 10
24.09.2017 20:00:00 15,8 12,2 22 12 25 14 O 1024,4 10
24.09.2017 19:00:00 15,9 11,8 22 12 25 14 O 1024,3 10
24.09.2017 18:00:00 16,0 11,3 18 10 22 12 - 1024,3 10
24.09.2017 17:00:00 16,1 10,9 21 11 22 12 O 1024,4 10
24.09.2017 16:00:00 16,2 11,1 18 10 22 12 O 1024,7 10
24.09.2017 15:00:00 16,2 11,4 15 8 18 10 - 1024,9 10
24.09.2017 14:00:00 16,3 11,1 13 7 18 10 OZO 1024,8 10
24.09.2017 13:00:00 16,4 10,9 15 8 18 10 OZO 1024,6 10
24.09.2017 12:00:00 16,5 11,2 13 7 14 8 OZO 1024,5 10
24.09.2017 11:00:00 16,3 12,0 11 6 18 10 ZO 1024,4 10
24.09.2017 10:00:00 16,0 12,4 13 7 18 10 - 1024,3 10
24.09.2017 09:00:00 15,6 12,2 8 4 11 6 - 1024,1 10
24.09.2017 08:00:00 15,5 11,6 8 4 11 6 O 1024,0 10
24.09.2017 07:00:00 15,4 11,3 9 5 11 6 OZO 1023,7 10
24.09.2017 06:00:00 15,4 10,4 11 6 11 6 OZO 1023,6 10
24.09.2017 05:00:00 15,3 10,0 9 5 14 8 OZO 1023,7 10
24.09.2017 04:00:00 15,1 10,0 11 6 14 8 - 1023,8 10
24.09.2017 03:00:00 15,0 10,1 11 6 14 8 - 1023,8 10
24.09.2017 02:00:00 15,0 10,0 9 5 14 8 OZO 1024,2 10
24.09.2017 01:00:00 15,0 9,7 11 6 14 8 OZO 1024,3 10
24.09.2017 00:00:00 15,0 9,8 5 3 11 6 - 1024,3 10
23.09.2017 23:00:00 15,0 9,4 8 4 11 6 - 1024,2 10
23.09.2017 22:00:00 14,9 9,5 2 1 11 6 - 1024,4 10
23.09.2017 21:00:00 15,0 9,8 8 4 11 6 O 1024,5 10
23.09.2017 20:00:00 15,0 9,6 8 4 7 4 O 1024,4 10
23.09.2017 19:00:00 15,1 9,6 5 3 7 4 O 1024,3 10
23.09.2017 18:00:00 15,4 9,3 4 2 7 4 - 1024,1 10
23.09.2017 17:00:00 15,6 9,2 2 1 7 4 NNW 1024,2 10
23.09.2017 16:00:00 15,9 9,1 2 1 7 4 WNW 1024,5 10
23.09.2017 15:00:00 16,2 9,4 8 4 11 6 WNW 1024,8 10
23.09.2017 14:00:00 16,2 9,1 8 4 11 6 W 1024,8 10
23.09.2017 13:00:00 16,4 9,3 8 4 11 6 W 1024,8 10
23.09.2017 12:00:00 16,2 9,1 8 4 11 6 W 1024,8 10
23.09.2017 11:00:00 16,3 8,6 8 4 11 6 W 1024,7 10
23.09.2017 10:00:00 16,1 8,8 8 4 11 6 WNW 1024,3 10
23.09.2017 09:00:00 15,7 9,0 8 4 11 6 NW 1023,9 10
23.09.2017 08:00:00 15,0 8,8 9 5 11 6 NW 1023,5 10
23.09.2017 07:00:00 14,9 8,7 11 6 14 8 NW 1023,1 10
23.09.2017 06:00:00 14,9 8,6 15 8 18 10 NW 1023,0 10
23.09.2017 05:00:00 14,9 9,0 11 6 14 8 WNW 1022,9 10
23.09.2017 04:00:00 14,9 8,4 11 6 18 10 NW 1022,8 10
23.09.2017 03:00:00 15,0 8,6 13 7 14 8 WNW 1022,8 10
23.09.2017 02:00:00 15,1 9,5 13 7 18 10 WNW 1022,6 10
23.09.2017 01:00:00 15,2 9,7 16 9 18 10 WNW 1022,2 10
23.09.2017 00:00:00 15,4 10,4 16 9 18 10 WNW 1022,1 10
22.09.2017 23:00:00 15,6 11,7 15 8 18 10 WNW 1022,0 10
22.09.2017 22:00:00 15,6 10,8 13 7 18 10 WNW 1021,5 10
22.09.2017 21:00:00 15,7 11,6 16 9 18 10 WNW 1021,3 10
22.09.2017 20:00:00 15,3 11,9 9 5 14 8 ZZW 1020,9 10
22.09.2017 19:00:00 14,9 11,3 11 6 18 10 W 1020,6 10
22.09.2017 18:00:00 14,6 13,4 11 6 22 12 W 1020,3 6
22.09.2017 17:00:00 15,1 13,0 16 9 22 12 W 1020,3 10
22.09.2017 16:00:00 16,1 12,6 11 6 14 8 WZW 1020,2 10
22.09.2017 15:00:00 15,8 12,6 11 6 14 8 ZW 1020,1 10
22.09.2017 14:00:00 16,3 11,3 11 6 14 8 Z 1020,0 10
22.09.2017 13:00:00 16,1 11,9 11 6 18 10 ZZW 1019,8 10
22.09.2017 12:00:00 16,1 11,8 16 9 18 10 Z 1019,8 10
22.09.2017 11:00:00 15,8 11,9 15 8 18 10 Z 1019,6 10
22.09.2017 10:00:00 15,5 12,0 15 8 18 10 Z 1019,7 10
22.09.2017 09:00:00 15,7 12,3 16 9 18 10 Z 1019,4 10
22.09.2017 08:00:00 15,7 12,2 18 10 18 10 Z 1019,1 10
22.09.2017 07:00:00 15,8 11,8 18 10 18 10 Z 1019,0 10
22.09.2017 06:00:00 16,0 11,6 18 10 18 10 Z 1019,0 10
22.09.2017 05:00:00 16,2 10,8 21 11 18 10 Z 1018,9 10
22.09.2017 04:00:00 16,2 11,2 16 9 22 12 Z 1019,0 10
22.09.2017 03:00:00 16,3 11,4 16 9 22 12 Z 1019,4 10
22.09.2017 02:00:00 16,4 11,2 15 8 25 14 Z 1019,6 10
22.09.2017 01:00:00 16,5 10,9 18 10 22 12 Z 1019,5 10
22.09.2017 00:00:00 16,6 11,4 16 9 22 12 ZZW 1019,7 10
21.09.2017 23:00:00 16,8 11,1 21 11 22 12 ZZW 1019,8 10
21.09.2017 22:00:00 16,8 11,6 16 9 22 12 Z 1019,6 10
21.09.2017 21:00:00 16,9 11,0 21 11 25 14 Z 1019,5 10
21.09.2017 20:00:00 16,8 11,0 22 12 25 14 Z 1019,3 10
21.09.2017 19:00:00 16,8 10,7 21 11 29 16 ZZW 1019,2 10
21.09.2017 18:00:00 16,8 10,2 24 13 29 16 ZZW 1018,9 10
21.09.2017 17:00:00 16,8 10,3 22 12 29 16 ZZW 1018,8 10
21.09.2017 16:00:00 16,8 10,4 26 14 32 18 ZZW 1018,9 10
21.09.2017 15:00:00 16,5 10,6 24 13 32 18 ZZW 1018,8 10
21.09.2017 14:00:00 16,3 10,9 28 15 32 18 ZZW 1019,0 10
21.09.2017 13:00:00 15,9 11,1 28 15 32 18 ZZW 1018,9 10
21.09.2017 12:00:00 15,8 11,7 28 15 32 18 ZZW 1019,0 10
21.09.2017 11:00:00 15,5 12,5 26 14 32 18 ZZW 1019,0 10
21.09.2017 10:00:00 15,5 12,3 26 14 36 19 ZW 1018,9 10
21.09.2017 09:00:00 15,8 12,9 28 15 32 18 ZW 1018,6 10
21.09.2017 08:00:00 15,7 13,6 24 13 32 18 ZW 1018,2 10
21.09.2017 07:00:00 15,7 13,5 28 15 32 18 ZW 1018,1 10
21.09.2017 06:00:00 15,6 13,7 28 15 29 16 ZW 1017,9 10
21.09.2017 05:00:00 15,8 13,7 26 14 32 18 ZW 1017,8 10
21.09.2017 04:00:00 15,5 13,5 26 14 32 18 ZW 1017,9 10
21.09.2017 03:00:00 15,7 13,2 26 14 32 18 ZW 1017,9 10
21.09.2017 02:00:00 15,7 12,9 29 16 32 18 ZW 1018,0 10
21.09.2017 01:00:00 16,1 13,2 22 12 29 16 ZW 1017,8 10
21.09.2017 00:00:00 16,2 12,0 16 9 25 14 WZW 1017,8 10
20.09.2017 23:00:00 15,9 11,8 21 11 29 16 W 1017,9 10
20.09.2017 22:00:00 15,9 11,3 16 9 29 16 WZW 1017,9 10
20.09.2017 21:00:00 15,8 10,1 18 10 29 16 WZW 1018,0 10
20.09.2017 20:00:00 15,8 10,2 16 9 29 16 WZW 1017,9 10
20.09.2017 19:00:00 16,0 9,9 22 12 29 16 ZW 1017,7 10
20.09.2017 18:00:00 16,0 9,6 21 11 29 16 WZW 1017,8 10
20.09.2017 17:00:00 16,1 9,5 22 12 25 14 W 1017,9 10
20.09.2017 16:00:00 16,2 8,9 21 11 25 14 W 1017,9 10
20.09.2017 15:00:00 16,3 9,1 22 12 25 14 W 1017,7 10
20.09.2017 14:00:00 16,4 9,3 21 11 25 14 W 1017,7 10
20.09.2017 13:00:00 15,9 9,0 21 11 25 14 W 1017,8 10
20.09.2017 12:00:00 15,6 8,8 21 11 29 16 WNW 1017,6 10
20.09.2017 11:00:00 15,6 8,8 24 13 25 14 WNW 1017,4 10
20.09.2017 10:00:00 15,6 9,2 22 12 25 14 NW 1017,2 10
20.09.2017 09:00:00 15,2 9,0 22 12 29 16 NW 1017,0 10
20.09.2017 08:00:00 14,4 9,4 22 12 36 19 NW 1016,9 10
20.09.2017 07:00:00 14,1 9,0 35 19 40 21 NW 1016,8 10
20.09.2017 06:00:00 14,7 8,7 31 17 36 19 NW 1016,6 10
20.09.2017 05:00:00 14,6 7,9 29 16 36 19 WNW 1016,9 10
20.09.2017 04:00:00 14,5 8,4 34 18 40 21 NW 1017,0 10
20.09.2017 03:00:00 14,5 8,2 39 21 40 21 WNW 1017,2 10
20.09.2017 02:00:00 14,3 8,2 35 19 40 21 NW 1017,4 10
20.09.2017 01:00:00 13,3 10,1 29 16 40 21 NW 1017,5 10
20.09.2017 00:00:00 14,6 8,1 29 16 32 18 NW 1017,5 10
19.09.2017 23:00:00 14,5 7,7 29 16 36 19 NW 1017,7 10
19.09.2017 22:00:00 14,6 7,7 35 19 40 21 NW 1017,8 10
19.09.2017 21:00:00 14,4 8,7 29 16 40 21 NW 1017,8 10
19.09.2017 20:00:00 14,9 7,9 28 15 32 18 NW 1017,5 10
19.09.2017 19:00:00 15,0 6,9 29 16 40 21 NW 1017,5 10
19.09.2017 18:00:00 14,2 8,8 16 9 36 19 WNW 1017,3 10
19.09.2017 17:00:00 15,0 10,1 22 12 29 16 NNW 1017,1 10
19.09.2017 16:00:00 15,1 9,8 13 7 25 14 NNW 1017,2 10
19.09.2017 15:00:00 15,4 9,3 18 10 22 12 NW 1017,2 10
19.09.2017 14:00:00 15,2 9,8 24 13 29 16 NNW 1017,3 10
19.09.2017 13:00:00 15,9 8,9 16 9 22 12 NNW 1017,1 10
19.09.2017 12:00:00 15,9 9,0 16 9 25 14 N 1016,8 10
19.09.2017 11:00:00 15,3 9,3 15 8 25 14 N 1016,7 10
19.09.2017 10:00:00 15,7 9,3 13 7 18 10 NNO 1016,3 10
19.09.2017 09:00:00 14,9 9,7 13 7 18 10 NNO 1015,9 10
19.09.2017 08:00:00 14,2 9,7 8 4 11 6 W 1015,6 10
19.09.2017 07:00:00 13,9 9,1 5 3 22 12 ONO 1015,3 10
19.09.2017 06:00:00 14,7 8,2 5 3 7 4 NNW 1015,2 10

tt = temperatuur
td = dauwpunt
ff = windsnelheid
fx = windstoten
dd = windrichting
ppp = luchtdruk
vv = zicht

Weerstations in de omgeving